sat.trackr.live / text

‹ back to catalog

MAGNARO-II

NORAD 68798 · 2026-088G

PAYLOAD ACTIVE UNKNOWN

§ Identity

Operator
Country
JPN
Launch date
2026-04-23
Launch site
RLLB
Launch vehicle
Mass (kg)
RCS (m²)

External: N2YO · Heavens-Above · Gunter

§ Orbital elements

Epoch: 2026-05-25T00:00:28.154304Z

Period
95.45 min
Inclination
97.5042°
Eccentricity
0.0019914
Mean motion
15.08577085 rev/d
Perigee alt
526.8 km
Apogee alt
554.3 km
Semi-major
6,918.7 km
B*
2.0210e-4
RAAN
294.9448°
Arg perigee
156.6558°
Mean anomaly
203.5579°
Rev number
480

§ Raw data

MAGNARO-II1 68798U 26088G   26145.00032586  .00003109  00000+0  20210-3 0  99942 68798  97.5042 294.9448 0019914 156.6558 203.5579 15.08577085  4806

JSON: /api/v1/satellites/68798 · /tle

For live sub-satellite position, see the globe view (requires WebGL).

§ Visibility from observer

Set your observer location to see the next 7 days of passes ≥ 10°. The values pass through the URL so the page stays shareable.

No JS? Fill the form by hand. The geolocation button needs JavaScript.